Погода в Тутуре

Россия / Иркутская область     54°47′08″N   105°13′46″E
темп.,
°C
ветер,
м/с
пор.,
м/с
влажн.,
%
обл.,
%
осадки,
мм/ч
давл.,
гПа
погр.,
м
24 мая, вт
вт2423:00+7с11636 0.0 102110
02:00+5юз00715 0.0 102310
05:00+4ююз00805 0.0 102510
08:00+12юв00535 0.0 1026280
11:00+19сз12335 0.0 10241760
14:00+22ссз11284 0.0 10232183
17:00+21сз12265 0.0 10212510
20:00+17св11410 0.0 102111
25 мая, ср
ср2523:00+11ююв00535 0.0 102310
02:00+9ююв11613 0.0 102310
05:00+8юв11664 0.0 102410
08:00+15ююз01465 0.0 1022291
11:00+22з12290 0.0 10201595
14:00+24зсз12205 0.0 10162546
17:00+24зсз22202 0.0 10132516
20:00+19в11350 0.0 101211
26 мая, чт
чт2623:00+13ююз22460 0.0 101211
02:00+10ююз11555 0.0 101011
05:00+9юз216039 0.0 100912
08:00+16зюз2341100 0.0 1007296
11:00+20сз584026 0.0 10061889
14:00+20сз593565 0.1 10062905
17:00+19ссз793671 0.0 10062510
20:00+14с47565 0.0 10071090
27 мая, пт
пт2723:00+8зсз22905 0.5 101016
02:00+6зсз219736 0.9 101126
05:00+4сз11977 0.0 101213
08:00+9ссз257015 0.0 10111070
11:00+13с463940 0.0 10101970
14:00+16с4528100 0.0 10082708
17:00+15с552696 0.0 10072586
20:00+11ссв57395 0.0 1008884
28 мая, сб
сб2823:00+4ссв22615 0.0 101024
02:00+2ссз11752 0.0 101113
05:00−1ссз21835 0.0 101222
08:00+6с355316 0.0 10121130
11:00+10с5735100 0.0 10122507
14:00+12ссв5827100 0.0 10113066
17:00+12с6828100 0.0 10122698
20:00+10с47365 0.0 10131007